Find Starlink 32033

NORAD ID: 60144 Int'l Des: 2024-120 Owner: SPXS Country: US Constellation: starlink operational
LEOCIRCULAR

リアルタイム位置

3D地球を読み込み中...

Starlink 32033について

説明を読み込み中...

次回通過

Passes for default location (London). Set your location on the main map for personalized predictions.

高度履歴

Loading altitude history...

軌道要素

1 60144U 24120K 26127.18025968 .00000435 00000-0 26822-4 0 9997
2 60144 53.1618 48.0816 0001336 83.8481 276.2672 15.30200950105332
Epoch: May 7, 2026 • Age: 5 hours

現在のステータス

高度 478.2 km
速度 7.63 km/s
衛星直下点 40.59°N, 178.51°E
打ち上げ日 Jun 27, 2024
運用期間 1.8 years
タイプ internet

技術仕様

分類 Payload
質量 730.00 kg
乾燥質量 700.00 kg
総質量 730.00 kg
長さ 0.30 m
直径 4.10 m
スパン 29.00 m
形状 Box + pan
製造者 SPXS
バスタイプ Starlink V2M
フェーズステータス In Orbit
所有者/国 SPXS/US

Most Searched